Date String (YYYY-MM-DD hh:mm:ss) UTC,Instrument flags,Ambient pressure (hPa),Sample flow (lpm),Bypass flow (lpm),Sample temperature (°C),Ambient temperature (°C),ASC tube jacket temperature (°C),LED temperature (°C),Box temperature (°C),Sample RH (%),Span deviation,Mass concentration (μg/m³),Mass concentration (μg/m³),Mass concentration (μg/m³)
DateTimeUTC,F1_M11,P_M11,Q1_M11,Q2_M11,T1_M11,T2_M11,T3_M11,T4_M11,T5_M11,U1_M11,ZSPAN_M11,X0_M11,X2_M11,X1_M11
2022-06-03 17:00:00,,0824.0,5.01,0.00,29.5,28.5,00.0,38.3,31.5,27.6,-001.3,0016.98,0010.65,0009.77
2022-06-03 17:01:00,,0824.0,5.01,0.00,29.5,28.6,00.0,38.3,31.5,28.1,-001.1,0017.44,0010.60,0009.71
2022-06-03 17:02:00,,0824.0,4.99,0.00,29.6,28.7,00.0,38.4,31.5,28.1,-001.0,0016.97,0010.58,0009.70
2022-06-03 17:03:00,,0824.0,5.00,0.00,29.6,28.7,00.0,38.4,31.6,27.2,-001.0,0017.30,0010.61,0009.74
2022-06-03 17:04:00,,0823.9,5.00,0.00,29.6,28.8,00.0,38.4,31.6,26.9,-001.1,0018.23,0010.68,0009.81
2022-06-03 17:05:00,,0823.9,5.00,0.00,29.6,28.4,00.0,38.4,31.5,27.4,-001.4,0018.10,0010.72,0009.87
2022-06-03 17:06:00,,0823.9,5.00,0.00,29.6,27.5,00.0,38.3,31.3,27.9,-001.8,0018.12,0010.73,0009.91
2022-06-03 17:07:00,,0823.9,5.01,0.00,29.5,27.2,00.0,38.3,31.2,28.0,-001.9,0018.31,0010.75,0009.92
2022-06-03 17:08:00,,0823.9,4.99,0.00,29.4,27.1,00.0,38.2,31.1,28.1,-001.9,0018.42,0010.78,0009.93
2022-06-03 17:09:00,,0823.9,5.01,0.00,29.4,27.2,00.0,38.2,31.1,27.8,-001.7,0017.64,0010.86,0009.99
2022-06-03 17:10:00,,0823.9,5.00,0.00,29.3,27.3,00.0,38.2,31.1,28.1,-001.7,0018.30,0010.98,0010.09
2022-06-03 17:11:00,,0823.9,5.00,0.00,29.3,27.5,00.0,38.2,31.1,28.6,-002.0,0019.15,0011.09,0010.18
2022-06-03 17:12:00,,0823.8,4.99,0.00,29.3,27.6,00.0,38.2,31.2,27.8,-002.1,0018.88,0011.18,0010.27
2022-06-03 17:13:00,,0823.9,5.00,0.00,29.3,27.8,00.0,38.2,31.2,27.8,-002.0,0019.40,0011.18,0010.29
2022-06-03 17:14:00,,0823.9,5.01,0.00,29.3,27.9,00.0,38.2,31.2,27.8,-002.1,0019.29,0011.10,0010.21
2022-06-03 17:15:00,,0823.8,5.01,0.00,29.4,28.0,00.0,38.2,31.3,28.0,-002.1,0018.83,0011.00,0010.11
2022-06-03 17:16:00,,0823.8,5.01,0.00,29.4,28.2,00.0,38.2,31.3,27.7,-002.1,0019.04,0010.94,0010.01
2022-06-03 17:17:00,,0823.8,5.01,0.00,29.4,28.3,00.0,38.2,31.3,27.6,-001.9,0019.39,0010.89,0009.94
2022-06-03 17:18:00,,0823.8,5.00,0.00,29.4,28.3,00.0,38.2,31.4,27.7,-001.6,0020.22,0010.78,0009.83
2022-06-03 17:19:00,,0823.8,5.00,0.00,29.4,28.4,00.0,38.3,31.4,27.0,-001.3,0019.81,0010.62,0009.69
2022-06-03 17:20:00,,0823.8,5.00,0.00,29.5,28.5,00.0,38.3,31.4,26.8,-001.4,0019.53,0010.49,0009.57
2022-06-03 17:21:00,,0823.8,5.00,0.00,29.5,28.5,00.0,38.3,31.4,26.8,-001.4,0019.24,0010.39,0009.44
2022-06-03 17:22:00,,0823.8,5.01,0.00,29.5,28.6,00.0,38.3,31.5,26.6,-001.3,0018.77,0010.31,0009.35
2022-06-03 17:23:00,,0823.7,4.99,0.00,29.5,28.7,00.0,38.3,31.5,27.3,-001.2,0019.32,0010.24,0009.25
2022-06-03 17:24:00,,0823.7,5.00,0.00,29.6,28.7,00.0,38.3,31.5,26.9,-001.2,0019.47,0010.26,0009.22
2022-06-03 17:25:00,,0823.7,5.01,0.00,29.6,28.1,00.0,38.3,31.4,27.2,-001.2,0019.42,0010.27,0009.22
2022-06-03 17:26:00,,0823.7,4.98,0.00,29.5,27.2,00.0,38.2,31.2,27.3,-001.2,0019.91,0010.24,0009.20
2022-06-03 17:27:00,,0823.6,5.01,0.00,29.4,26.9,00.0,38.2,31.1,27.6,-001.3,0019.50,0010.22,0009.20
2022-06-03 17:28:00,,0823.6,4.99,0.00,29.3,27.0,00.0,38.2,31.0,28.4,-001.3,0019.56,0010.22,0009.20
2022-06-03 17:29:00,,0823.7,5.01,0.00,29.3,27.1,00.0,38.2,31.0,27.9,-001.5,0019.61,0010.34,0009.30
2022-06-03 17:30:00,,0823.6,5.00,0.00,29.2,27.2,00.0,38.2,31.0,28.1,-001.7,0019.79,0010.52,0009.47
2022-06-03 17:31:00,,0823.7,4.99,0.00,29.2,27.4,00.0,38.1,31.1,29.5,-001.7,0019.79,0010.61,0009.59
2022-06-03 17:32:00,,0823.6,5.00,0.00,29.2,27.6,00.0,38.1,31.1,28.1,-001.7,0019.92,0010.83,0009.78
2022-06-03 17:33:00,,0823.7,5.01,0.00,29.2,27.7,00.0,38.1,31.1,28.5,-001.5,0019.70,0010.99,0009.97
2022-06-03 17:34:00,,0823.7,4.99,0.00,29.3,27.9,00.0,38.1,31.2,28.4,-001.5,0019.62,0011.20,0010.20
2022-06-03 17:35:00,,0823.7,4.99,0.00,29.3,28.0,00.0,38.1,31.2,28.3,-001.4,0019.53,0011.41,0010.40
2022-06-03 17:36:00,,0823.6,4.99,0.00,29.3,28.1,00.0,38.2,31.2,28.4,-001.4,0020.63,0011.64,0010.59
2022-06-03 17:37:00,,0823.7,5.00,0.00,29.3,28.2,00.0,38.2,31.3,27.9,-001.5,0020.05,0011.85,0010.80
2022-06-03 17:38:00,,0823.6,5.00,0.00,29.3,28.3,00.0,38.2,31.3,27.6,-001.7,0020.13,0012.02,0010.99
2022-06-03 17:39:00,,0823.6,5.01,0.00,29.4,28.4,00.0,38.2,31.3,29.2,-001.8,0020.23,0012.19,0011.15
2022-06-03 17:40:00,,0823.6,4.99,0.00,29.4,28.4,00.0,38.2,31.4,28.1,-001.6,0019.73,0012.23,0011.21
2022-06-03 17:41:00,,0823.6,5.00,0.00,29.4,28.5,00.0,38.2,31.4,28.4,-001.4,0019.79,0012.27,0011.22
2022-06-03 17:42:00,,0823.6,5.00,0.00,29.5,28.6,00.0,38.2,31.4,28.9,-001.3,0020.24,0012.33,0011.27
2022-06-03 17:43:00,,0823.6,4.99,0.00,29.5,28.6,00.0,38.3,31.5,28.5,-001.0,0020.21,0012.31,0011.29
2022-06-03 17:44:00,,0823.6,5.01,0.00,29.5,28.7,00.0,38.3,31.5,27.7,-001.0,0021.10,0012.33,0011.33
2022-06-03 17:45:00,,0823.6,5.00,0.00,29.5,28.6,00.0,38.3,31.5,28.0,-000.9,0021.23,0012.34,0011.32
2022-06-03 17:46:00,,0823.5,5.00,0.00,29.5,27.8,00.0,38.2,31.3,28.2,-001.0,0021.24,0012.32,0011.30
2022-06-03 17:47:00,,0823.4,5.00,0.00,29.4,27.1,00.0,38.2,31.1,27.5,-001.1,0020.29,0012.25,0011.28
2022-06-03 17:48:00,,0823.4,5.01,0.00,29.3,26.9,00.0,38.1,31.0,28.1,-001.1,0020.25,0012.19,0011.21
2022-06-03 17:49:00,,0823.4,4.99,0.00,29.3,26.9,00.0,38.1,30.9,28.1,-000.9,0020.66,0012.16,0011.17
2022-06-03 17:50:00,,0823.4,5.01,0.00,29.2,27.0,00.0,38.1,30.9,27.6,-001.0,0020.36,0012.18,0011.20
2022-06-03 17:51:00,,0823.4,5.00,0.00,29.2,27.2,00.0,38.1,31.0,27.8,-001.3,0019.87,0012.22,0011.23
2022-06-03 17:52:00,,0823.3,4.99,0.00,29.2,27.4,00.0,38.1,31.0,27.5,-001.3,0019.70,0012.17,0011.21
2022-06-03 17:53:00,,0823.3,4.99,0.00,29.2,27.5,00.0,38.1,31.0,28.4,-001.7,0019.80,0012.16,0011.17
2022-06-03 17:54:00,,0823.3,5.00,0.00,29.2,27.7,00.0,38.1,31.1,28.0,-001.7,0019.72,0012.09,0011.08
2022-06-03 17:55:00,,0823.3,5.00,0.00,29.2,27.8,00.0,38.1,31.1,28.5,-001.9,0019.32,0012.02,0011.00
2022-06-03 17:56:00,,0823.3,5.00,0.00,29.2,27.9,00.0,38.1,31.1,28.5,-002.0,0018.79,0011.92,0010.91
2022-06-03 17:57:00,,0823.3,5.00,0.00,29.2,28.0,00.0,38.1,31.2,27.4,-002.1,0018.31,0011.83,0010.82
2022-06-03 17:58:00,,0823.3,4.99,0.00,29.3,28.1,00.0,38.1,31.2,27.5,-002.0,0018.46,0011.73,0010.72
2022-06-03 17:59:00,,0823.3,5.01,0.00,29.3,28.2,00.0,38.1,31.2,27.6,-002.1,0018.23,0011.67,0010.66
